{"data":{"norad_id":43441,"epoch":"2026-05-25T04:42:00.645984Z","epoch_age_seconds":55242,"freshness":"FRESH","line1":"1 43441U 18040C   26145.19584081  .00007371  00000+0  29344-3 0  9995","line2":"2 43441  97.0390 170.7105 0007762 322.3622  37.7073 15.25492697110772","mean_motion":15.25492697,"eccentricity":0.0007762,"inclination_deg":97.039,"raan_deg":170.7105,"arg_perigee_deg":322.3622,"mean_anomaly_deg":37.7073,"bstar":0.00029344,"rev_number":11077,"period_min":94.395732135059,"perigee_km":483.97584812761,"apogee_km":494.63686719604,"semimajor_km":6867.4433576618,"source":"CELESTRAK","updated_at":"2026-05-25T13:37:55.827190Z"}}